Wind_Speed
28 28 29 30 30 30 29 29 28 27 27 27 27 29 36 40 45 49 53 57 61 61 61 57 47 45 40 32 31 35 31 31 30 27 25 26 28 23 18 15 19 16 17 24 25
34 34 33 34 34 34 34 32 31 30 28 28 27 27 28 33 38 41 47 50 53 61 60 61 53 48 46 39 34 34 36 31 23 20 28 29 22 19 15 18 21 17 17 23 25
40 40 39 38 38 38 38 38 36 35 33 31 30 28 27 28 31 38 43 48 50 58 63 62 59 54 49 42 40 35 36 35 31 26 24 33 26 19 16 15 19 18 15 20 24
46 46 45 44 43 42 41 40 40 39 39 37 34 32 29 28 27 32 37 43 48 49 62 65 63 59 53 50 43 42 41 37 34 33 29 30 29 24 16 18 20 14 16 21 24
52 51 51 50 49 48 46 45 44 43 42 41 39 36 34 32 28 28 32 37 44 48 54 65 66 62 59 56 50 46 44 43 39 38 34 31 29 29 22 18 20 20 20 31 26
57 57 57 56 55 54 52 51 49 48 46 45 44 42 39 39 33 30 30 34 38 46 52 59 66 64 61 60 56 53 46 48 46 47 40 35 32 30 27 23 27 26 30 33 22
59 60 61 61 61 60 59 57 56 53 52 51 49 48 46 45 38 35 34 33 33 39 49 54 61 65 65 62 60 58 51 52 49 48 44 37 39 36 33 25 29 35 31 31 20
63 64 64 65 65 65 64 63 62 60 58 57 55 53 54 47 44 42 39 36 32 31 37 50 57 62 65 65 63 59 58 55 53 49 48 44 45 47 43 34 34 36 31 26 21
66 67 69 69 70 70 69 68 66 65 64 63 60 59 60 55 52 46 43 42 35 30 30 39 55 59 64 63 59 59 60 59 58 55 54 54 53 50 47 43 40 38 35 25 21
66 69 72 74 75 76 74 73 71 70 68 67 66 64 65 61 58 51 50 47 42 34 29 33 49 57 62 63 62 60 61 63 64 60 60 58 58 56 51 46 40 36 36 27 23
64 66 68 70 74 78 79 77 78 76 73 72 70 69 68 65 63 59 54 53 46 39 33 33 39 49 63 65 61 60 58 61 63 60 57 58 60 57 50 42 36 34 36 29 24
69 70 71 73 75 77 77 77 80 80 80 79 76 74 71 70 67 64 60 57 52 43 41 35 39 45 55 63 63 61 61 56 55 57 57 57 55 52 47 43 39 35 35 31 26
78 80 81 79 80 83 85 82 81 80 83 84 81 80 75 71 70 68 65 63 59 51 46 42 45 45 51 59 65 64 62 59 58 58 57 56 57 49 48 43 41 36 35 35 31
83 86 86 85 85 86 87 87 87 87 85 84 84 83 82 78 77 74 69 67 64 59 54 48 50 42 42 48 59 64 66 62 59 59 59 56 55 51 48 46 42 40 36 37 34
85 87 87 86 84 85 87 88 90 92 90 86 82 85 84 84 83 80 73 72 69 67 60 48 53 46 39 42 47 58 64 64 61 59 57 56 52 54 51 49 44 41 39 37 36
85 82 81 80 79 82 84 84 87 92 91 90 87 87 86 86 87 88 81 76 75 73 65 56 58 51 43 45 46 50 55 59 60 60 58 61 57 56 55 48 44 41 39 38 38
79 77 76 76 77 80 81 82 84 89 90 92 90 91 90 89 87 90 88 83 81 77 71 62 59 55 50 46 43 44 45 48 51 55 58 60 57 58 55 48 46 44 41 41 39
62 60 60 60 64 66 74 82 83 85 87 90 93 94 93 92 90 90 91 90 85 80 76 69 65 59 55 51 45 45 46 44 44 45 56 52 53 56 50 48 48 45 41 40 39
52 51 51 52 54 58 64 70 80 85 84 87 92 94 95 93 93 93 92 91 89 83 80 74 68 64 61 59 51 45 44 45 46 49 53 46 50 46 44 44 42 42 39 39 40
45 43 41 42 45 50 56 64 71 82 86 86 87 90 93 96 96 96 94 91 89 88 85 80 73 70 68 64 56 49 49 46 42 47 43 44 45 40 38 37 40 38 36 35 35
38 36 32 34 36 42 51 58 65 73 86 86 84 85 91 94 97 97 96 93 91 91 90 85 81 77 74 66 62 57 49 42 43 44 42 42 41 42 42 41 39 36 34 33 33
31 26 24 26 31 36 43 52 59 69 78 90 90 87 87 93 95 97 99 97 94 94 93 90 87 84 78 75 70 63 56 51 44 44 41 43 45 45 45 40 37 37 34 31 31
26 23 18 19 25 30 36 44 52 63 72 80 91 94 90 91 94 95 99 100 99 98 96 94 92 90 87 82 76 68 62 55 47 48 41 41 49 52 47 43 37 38 39 29 31
28 24 22 20 21 26 33 37 46 53 64 71 79 89 95 93 94 92 94 100 102 101 99 97 96 95 93 87 80 73 66 59 53 45 45 38 47 48 45 44 40 40 38 30 33
25 24 24 24 23 25 28 33 40 47 55 63 71 80 89 98 97 95 94 96 103 105 103 101 98 98 97 94 85 79 73 66 58 52 49 45 46 50 47 47 47 42 39 33 37
27 26 26 25 27 27 28 31 36 44 51 58 66 73 80 90 101 102 99 97 99 107 108 106 103 99 99 99 91 84 79 72 65 59 53 53 50 54 50 50 48 46 41 36 39
30 30 32 32 31 32 35 36 39 41 46 53 60 67 73 82 92 100 106 103 101 103 110 110 106 103 102 102 97 90 85 78 69 62 57 57 56 56 52 52 53 53 45 41 40
Wind_Direction
248 247 244 243 244 245 246 246 244 245 246 244 240 238 236 235 234 233 232 231 228 227 232 234 230 232 231 222 207 208 211 216 208 218 232 236 245 263 251 257 252 257 305 301 309
251 251 250 247 247 249 250 249 250 248 247 250 249 245 241 237 235 232 231 229 229 226 228 232 231 228 231 228 210 209 209 215 210 219 225 230 238 237 247 238 254 265 319 306 303
254 254 251 249 249 249 250 251 251 252 252 250 251 251 248 244 236 236 231 229 228 224 225 229 231 227 229 224 215 208 211 208 208 201 212 221 237 232 246 263 258 264 307 306 311
256 256 256 255 252 250 249 249 249 251 253 253 251 251 250 251 243 236 236 230 228 224 221 224 229 232 228 224 224 212 208 213 205 208 218 231 235 247 238 248 256 269 309 322 315
256 256 256 256 254 252 250 248 248 248 250 253 255 252 252 250 249 247 240 231 227 228 224 223 226 230 230 227 224 230 214 210 209 209 221 217 230 243 238 254 258 271 307 316 313
255 255 255 254 253 253 251 250 248 248 248 249 252 254 252 251 246 250 248 241 228 227 227 223 225 227 228 225 224 231 226 216 216 217 222 227 234 231 232 255 257 266 277 301 304
259 257 256 254 253 251 251 249 247 247 247 247 249 251 253 251 247 247 250 248 240 230 228 228 223 228 227 227 226 229 228 216 217 219 225 221 230 233 235 256 257 261 266 289 284
258 258 257 257 255 254 251 249 249 247 246 245 246 247 249 252 251 246 246 248 246 240 234 227 224 226 229 229 229 229 228 225 216 215 218 225 234 235 237 254 259 266 270 273 271
260 259 258 256 255 254 253 252 249 247 246 245 244 245 246 249 248 246 247 247 244 246 238 231 225 225 225 228 228 226 222 225 227 222 226 229 230 228 240 252 256 261 261 257 258
260 260 259 258 257 255 253 251 251 250 247 246 244 243 244 245 245 243 244 244 243 242 244 236 226 222 224 225 224 226 224 225 228 229 231 234 231 236 242 252 253 258 253 250 250
263 263 262 261 259 258 254 252 251 249 247 246 244 242 242 243 244 243 241 243 242 242 247 243 234 224 223 224 226 226 225 226 231 233 234 231 231 237 246 248 252 257 250 250 253
264 263 263 262 261 260 257 254 250 249 246 245 244 242 241 241 242 242 240 241 241 239 241 244 241 231 219 222 223 224 225 228 232 235 233 232 235 242 248 250 252 251 249 251 252
269 266 263 261 260 258 258 255 252 248 244 242 241 242 241 240 239 238 239 238 239 235 236 238 241 235 221 221 221 222 224 224 230 233 235 234 239 240 248 251 251 249 247 246 247
274 271 267 263 260 257 254 252 250 249 245 241 240 238 237 236 236 236 234 237 237 235 232 233 240 241 229 226 223 222 221 225 227 232 235 237 243 245 247 248 248 248 246 246 242
276 273 269 264 260 257 253 249 247 245 244 240 238 236 235 234 234 236 234 234 234 234 231 227 238 239 236 230 224 226 224 224 228 232 238 238 239 245 243 244 243 244 244 242 241
278 273 269 264 258 253 249 245 242 241 240 240 236 235 232 232 232 232 231 231 233 234 230 226 235 236 236 233 227 227 227 227 228 230 233 235 235 241 244 244 244 244 243 242 243
280 275 270 263 256 251 248 244 239 237 236 236 233 232 231 229 229 231 230 228 230 232 232 224 229 232 234 237 232 227 227 227 226 228 228 230 232 235 241 242 242 240 239 238 237
281 275 268 261 255 248 242 239 238 236 232 231 231 230 229 228 226 228 229 227 228 229 232 227 225 228 231 235 232 231 227 225 222 223 232 230 232 236 239 239 243 243 239 237 236
284 278 270 261 253 244 239 234 232 231 231 229 229 228 228 227 226 226 226 226 226 226 229 230 226 226 228 230 229 233 231 227 224 225 228 225 228 230 231 234 236 239 242 238 234
288 281 271 261 251 242 235 231 229 227 227 228 227 227 227 226 224 224 224 224 223 224 224 227 226 224 227 227 227 228 232 228 225 229 229 228 229 223 223 231 234 233 230 230 232
294 284 271 260 248 240 233 229 226 226 226 226 226 225 226 226 224 222 223 222 222 222 222 222 224 223 224 226 227 226 231 232 229 230 231 230 230 226 223 222 221 222 226 222 225
296 290 273 258 250 239 233 226 223 224 225 225 224 224 224 225 225 222 221 220 220 220 220 219 221 222 221 222 224 223 223 227 226 228 225 223 235 237 231 227 224 214 214 216 215
306 294 282 267 252 244 233 228 225 223 224 225 225 224 224 222 224 224 220 219 218 218 218 218 218 220 222 219 222 221 221 221 222 227 228 221 220 230 233 233 228 216 209 223 214
306 302 284 269 257 246 238 230 225 224 225 225 225 225 224 222 222 222 222 220 217 217 217 217 217 218 222 220 219 220 220 219 220 221 222 221 222 229 229 230 228 220 217 222 215
302 302 291 280 266 254 243 236 232 224 223 224 225 224 223 223 221 221 222 221 219 215 216 216 216 218 219 222 219 218 218 216 216 215 215 214 221 228 224 225 224 219 221 222 212
302 291 290 279 268 259 250 240 231 229 224 221 223 224 224 222 222 222 222 221 220 216 214 214 214 217 218 221 220 217 217 215 212 212 212 212 215 227 222 225 226 225 227 227 218
309 295 282 276 268 259 251 245 237 231 228 223 223 224 225 222 221 221 221 220 219 218 214 213 214 215 217 218 219 217 216 215 211 212 212 211 213 221 219 222 224 224 228 231 228
Height
10905 10907 10908 10909 10910 10911 10913 10914 10916 10917 10918 10919 10920 10921 10922 10925 10929 10935 10940 10944 10949 10955 10959 10964 10972 10976 10979 10987 10991 10994 10998 11000 11001 11002 11005 11007 11009 11011 11012 11013 11014 11015 11014 11012 11010
10898 10900 10902 10903 10905 10906 10907 10909 10910 10911 10913 10913 10914 10915 10917 10919 10922 10927 10930 10935 10941 10948 10952 10957 10963 10970 10974 10980 10986 10991 10993 10996 10996 11000 11002 11004 11007 11009 11010 11011 11013 11014 11014 11012 11011
10890 10891 10893 10895 10897 10899 10900 10902 10904 10905 10906 10908 10909 10910 10911 10913 10918 10917 10922 10926 10932 10938 10945 10949 10953 10963 10969 10974 10980 10987 10989 10991 10994 10997 10999 11002 11005 11008 11008 11011 11013 11014 11013 11014 11012
10881 10882 10884 10886 10887 10889 10892 10894 10895 10897 10898 10900 10902 10904 10906 10908 10911 10913 10915 10920 10924 10929 10934 10939 10944 10952 10963 10967 10973 10979 10984 10987 10989 10994 10996 10998 11001 11005 11005 11009 11012 11013 11012 11013 11011
10869 10871 10872 10874 10876 10879 10882 10885 10887 10888 10890 10893 10894 10897 10899 10902 10905 10907 10907 10910 10916 10921 10925 10930 10938 10944 10953 10959 10966 10971 10979 10982 10986 10989 10992 10994 10999 11002 11004 11006 11009 11010 11011 11012 11012
10856 10857 10859 10861 10864 10866 10869 10873 10876 10879 10882 10884 10885 10888 10891 10893 10899 10901 10902 10904 10909 10911 10916 10924 10931 10936 10943 10951 10958 10962 10971 10976 10980 10984 10987 10990 10993 10998 11000 11003 11006 11008 11009 11011 11011
10841 10843 10845 10846 10849 10852 10855 10859 10863 10868 10871 10874 10876 10878 10881 10881 10891 10895 10895 10897 10902 10905 10909 10916 10924 10926 10933 10940 10950 10954 10962 10969 10973 10977 10982 10985 10989 10992 10996 10999 11002 11004 11007 11009 11009
10826 10827 10829 10830 10833 10836 10840 10845 10848 10853 10857 10861 10866 10868 10867 10876 10880 10884 10888 10890 10895 10899 10901 10906 10913 10919 10923 10929 10939 10945 10952 10960 10967 10970 10974 10979 10982 10985 10989 10995 10998 11001 11004 11007 11008
10808 10810 10813 10814 10817 10820 10824 10829 10833 10838 10842 10846 10852 10855 10855 10864 10867 10874 10878 10882 10887 10892 10896 10897 10900 10908 10914 10918 10929 10934 10941 10950 10958 10965 10967 10972 10976 10981 10986 10991 10995 10998 11001 11003 11004
10791 10792 10794 10794 10797 10800 10807 10811 10816 10822 10828 10832 10836 10840 10843 10851 10855 10863 10865 10871 10878 10884 10890 10890 10892 10898 10902 10906 10916 10926 10933 10938 10944 10954 10961 10967 10972 10976 10982 10987 10991 10993 10996 10999 10999
10773 10773 10774 10775 10777 10777 10785 10791 10797 10803 10810 10815 10819 10824 10828 10838 10844 10850 10856 10859 10868 10876 10881 10882 10882 10884 10890 10901 10911 10916 10923 10926 10933 10943 10949 10957 10960 10969 10975 10981 10985 10988 10991 10995 10998
10754 10753 10754 10755 10756 10755 10760 10767 10772 10780 10787 10794 10801 10805 10814 10822 10831 10836 10844 10848 10856 10866 10868 10875 10873 10873 10885 10894 10901 10907 10911 10914 10923 10930 10938 10947 10953 10960 10967 10974 10979 10982 10986 10990 10993
10730 10728 10728 10732 10732 10731 10734 10743 10747 10754 10760 10770 10781 10788 10799 10808 10814 10822 10829 10836 10842 10852 10858 10864 10860 10867 10876 10882 10890 10897 10901 10906 10911 10921 10929 10937 10940 10955 10962 10967 10971 10975 10979 10984 10987
10700 10696 10697 10701 10703 10703 10705 10714 10722 10726 10732 10747 10758 10766 10777 10787 10793 10801 10813 10821 10830 10839 10845 10853 10851 10861 10871 10876 10882 10887 10888 10900 10907 10911 10919 10929 10936 10947 10953 10959 10964 10968 10973 10976 10982
10667 10662 10661 10664 10670 10670 10674 10683 10691 10697 10705 10722 10737 10742 10756 10767 10776 10783 10797 10806 10813 10821 10833 10849 10844 10853 10862 10865 10871 10871 10884 10893 10903 10909 10917 10923 10931 10932 10944 10949 10957 10961 10966 10971 10974
10632 10628 10624 10628 10633 10633 10641 10649 10659 10666 10680 10692 10710 10718 10731 10743 10754 10761 10778 10789 10796 10804 10821 10833 10834 10845 10855 10856 10863 10868 10879 10887 10897 10903 10912 10911 10920 10925 10929 10940 10948 10954 10959 10964 10968
10597 10594 10589 10591 10595 10601 10610 10618 10628 10638 10652 10664 10680 10693 10705 10717 10734 10743 10756 10770 10778 10790 10806 10821 10827 10836 10843 10849 10857 10864 10871 10880 10889 10896 10893 10905 10913 10915 10921 10931 10936 10942 10950 10955 10960
10566 10562 10559 10561 10563 10570 10577 10588 10601 10612 10624 10638 10648 10664 10679 10694 10711 10720 10733 10748 10764 10779 10789 10807 10815 10825 10834 10840 10849 10854 10860 10870 10876 10883 10881 10901 10906 10907 10918 10923 10926 10932 10939 10945 10951
10541 10537 10535 10535 10538 10544 10551 10562 10572 10585 10599 10610 10623 10638 10654 10671 10686 10698 10711 10729 10748 10766 10777 10791 10806 10813 10820 10825 10839 10847 10854 10857 10867 10872 10876 10889 10891 10901 10907 10913 10918 10922 10932 10937 10941
10522 10518 10515 10516 10518 10523 10531 10538 10549 10562 10573 10586 10602 10617 10631 10643 10661 10675 10692 10711 10732 10748 10760 10774 10788 10798 10802 10813 10828 10839 10840 10851 10861 10867 10877 10882 10885 10893 10899 10906 10911 10917 10923 10928 10934
10506 10502 10501 10501 10503 10507 10513 10521 10533 10542 10552 10567 10581 10594 10607 10620 10636 10655 10671 10692 10710 10725 10740 10757 10768 10778 10787 10805 10813 10824 10836 10846 10854 10861 10871 10874 10880 10884 10890 10896 10903 10910 10914 10921 10927
10495 10492 10489 10488 10490 10493 10498 10504 10514 10522 10530 10544 10556 10571 10584 10597 10612 10634 10648 10668 10687 10703 10718 10736 10749 10756 10775 10784 10794 10809 10821 10831 10844 10853 10862 10869 10871 10876 10882 10890 10897 10903 10908 10915 10920
10487 10484 10482 10479 10479 10481 10485 10491 10499 10506 10513 10523 10536 10549 10565 10577 10592 10608 10626 10644 10663 10679 10698 10714 10731 10738 10750 10764 10779 10797 10809 10822 10835 10842 10856 10865 10867 10867 10874 10881 10889 10896 10904 10910 10915
10480 10476 10474 10472 10471 10471 10473 10478 10484 10492 10499 10507 10517 10529 10544 10558 10572 10588 10604 10620 10640 10657 10677 10693 10709 10721 10733 10748 10766 10782 10797 10812 10824 10837 10847 10857 10858 10861 10869 10874 10880 10887 10896 10904 10910
10472 10468 10466 10463 10463 10463 10464 10466 10471 10478 10483 10491 10498 10506 10520 10537 10551 10567 10582 10597 10614 10634 10652 10672 10689 10704 10716 10729 10751 10766 10781 10796 10811 10824 10834 10843 10848 10849 10859 10864 10869 10878 10889 10896 10903
10463 10459 10456 10454 10452 10451 10452 10454 10456 10460 10466 10473 10479 10487 10498 10512 10526 10543 10558 10573 10588 10609 10629 10650 10669 10686 10698 10711 10734 10751 10765 10780 10796 10808 10822 10831 10837 10837 10851 10858 10867 10874 10882 10889 10896
10453 10447 10444 10442 10439 10439 10439 10440 10442 10445 10451 10457 10464 10471 10479 10490 10501 10516 10531 10547 10564 10584 10608 10630 10651 10666 10677 10694 10715 10734 10748 10766 10783 10800 10811 10819 10826 10829 10842 10851 10859 10865 10874 10881 10887